,,,PA_Meas_PMT16A,,PR_Meas_QMR101_102,,RH_Meas_QMH101,,SR_Meas_QMS101,,TA_Meas_QMH101,,GenWind,,GenWind,
date,time,status,PA,status,PR,status,RH,status,SR,status,TA,status,DirAvg,status,SpdAvg,
2009-07-27, 00:00:04,VALID,1001.89,VALID,0,VALID,89.5336,VALID,0,VALID,22.6689,VALID,31,VALID,0.903125,
2009-07-27, 00:01:04,VALID,1001.87,VALID,0,VALID,89.4039,VALID,0,VALID,22.6494,VALID,31,VALID,0.893359,
2009-07-27, 00:02:04,VALID,1001.88,VALID,0,VALID,89.236,VALID,0,VALID,22.6689,VALID,31,VALID,0.692187,
2009-07-27, 00:03:04,VALID,1001.85,VALID,0,VALID,89.2742,VALID,0,VALID,22.6689,VALID,31,VALID,0.570313,
2009-07-27, 00:04:04,VALID,1001.84,VALID,0,VALID,89.3276,VALID,0,VALID,22.6689,VALID,31,VALID,0.483984,
2009-07-27, 00:05:04,VALID,1001.82,VALID,0,VALID,89.381,VALID,0,VALID,22.6689,VALID,31,VALID,0.462109,
2009-07-27, 00:06:04,VALID,1001.81,VALID,0,VALID,89.526,VALID,0,VALID,22.6299,VALID,31,VALID,0.334375,
2009-07-27, 00:07:04,VALID,1001.78,VALID,0,VALID,89.6099,VALID,0,VALID,22.6104,VALID,31,VALID,0.271484,
2009-07-27, 00:08:04,VALID,1001.76,VALID,0,VALID,89.8006,VALID,0,VALID,22.5909,VALID,31,VALID,0.433203,
2009-07-27, 00:09:04,VALID,1001.76,VALID,0,VALID,89.938,VALID,0,VALID,22.5714,VALID,31,VALID,0.445313,
2009-07-27, 00:10:04,VALID,1001.71,VALID,0,VALID,90.1287,VALID,0,VALID,22.5714,VALID,31,VALID,0.408594,
2009-07-27, 00:11:04,VALID,1001.72,VALID,0,VALID,90.3042,VALID,0,VALID,22.5519,VALID,31,VALID,0.270703,
2009-07-27, 00:12:04,VALID,1001.71,VALID,0,VALID,90.35,VALID,0,VALID,22.5519,VALID,31,VALID,0.264844,
2009-07-27, 00:13:04,VALID,1001.69,VALID,0,VALID,90.6933,VALID,0,VALID,22.5519,VALID,31,VALID,0.358203,
2009-07-27, 00:14:04,VALID,1001.69,VALID,0,VALID,90.8077,VALID,0,VALID,22.5323,VALID,31,VALID,0.461719,
2009-07-27, 00:15:04,VALID,1001.69,VALID,0,VALID,91.0748,VALID,0,VALID,22.5519,VALID,31,VALID,0.597656,
2009-07-27, 00:16:04,VALID,1001.69,VALID,0,VALID,91.2045,VALID,0,VALID,22.5714,VALID,31,VALID,0.622266,
2009-07-27, 00:17:04,VALID,1001.7,VALID,0,VALID,90.9756,VALID,0,VALID,22.5909,VALID,33,VALID,0.791797,
2009-07-27, 00:18:04,VALID,1001.68,VALID,0,VALID,91.0214,VALID,0,VALID,22.5909,VALID,37,VALID,0.817187,
2009-07-27, 00:19:04,VALID,1001.7,VALID,0,VALID,91.1587,VALID,0,VALID,22.6104,VALID,37,VALID,0.9,
2009-07-27, 00:20:04,VALID,1001.67,VALID,0,VALID,91.1206,VALID,0,VALID,22.6706,VALID,37,VALID,0.964844,
2009-07-27, 00:21:04,VALID,1001.68,VALID,0,VALID,91.1587,VALID,0,VALID,22.6689,VALID,37,VALID,1.04766,
2009-07-27, 00:22:04,VALID,1001.67,VALID,0,VALID,90.9146,VALID,0,VALID,22.6689,VALID,37,VALID,1.16602,
2009-07-27, 00:23:04,VALID,1001.67,VALID,0,VALID,90.9374,VALID,0,VALID,22.6689,VALID,40,VALID,1.34063,
2009-07-27, 00:24:04,VALID,1001.65,VALID,0,VALID,91.0824,VALID,0,VALID,22.6689,VALID,45,VALID,1.33008,
2009-07-27, 00:25:04,VALID,1001.64,VALID,0,VALID,91.3342,VALID,0,VALID,22.6689,VALID,47,VALID,1.3207,
2009-07-27, 00:26:04,VALID,1001.65,VALID,0,VALID,91.4791,VALID,0,VALID,22.6672,VALID,48,VALID,1.33281,
2009-07-27, 00:27:04,VALID,1001.64,VALID,0,VALID,91.5478,VALID,0,VALID,22.6884,VALID,47,VALID,1.04258,
2009-07-27, 00:28:04,VALID,1001.62,VALID,0,VALID,91.5631,VALID,0,VALID,22.6477,VALID,48,VALID,1.3668,
2009-07-27, 00:29:04,VALID,1001.58,VALID,0,VALID,91.5783,VALID,0,VALID,22.6282,VALID,48,VALID,0.823438,
2009-07-27, 00:30:04,VALID,1001.58,VALID,0,VALID,91.2121,VALID,0,VALID,22.6087,VALID,49,VALID,0.898047,
2009-07-27, 00:31:04,VALID,1001.55,VALID,0,VALID,91.1129,VALID,0,VALID,22.5696,VALID,51,VALID,0.798828,
2009-07-27, 00:32:04,VALID,1001.54,VALID,0,VALID,91.174,VALID,0,VALID,22.5696,VALID,51,VALID,0.567578,
2009-07-27, 00:33:04,VALID,1001.51,VALID,0,VALID,91.2808,VALID,0,VALID,22.5696,VALID,51,VALID,0.583594,
2009-07-27, 00:34:04,VALID,1001.5,VALID,0,VALID,91.4181,VALID,0,VALID,22.5696,VALID,51,VALID,0.280859,
2009-07-27, 00:35:04,VALID,1001.44,VALID,0,VALID,91.4791,VALID,0,VALID,22.5696,VALID,63,VALID,0.372266,
2009-07-27, 00:36:04,VALID,1001.43,VALID,0,VALID,91.3647,VALID,0,VALID,22.5501,VALID,66,VALID,0.513281,
2009-07-27, 00:37:04,VALID,1001.42,VALID,0,VALID,91.3418,VALID,0,VALID,22.5501,VALID,66,VALID,0.33125,
2009-07-27, 00:38:04,VALID,1001.4,VALID,0,VALID,91.3266,VALID,0,VALID,22.5501,VALID,66,VALID,0,
2009-07-27, 00:39:04,VALID,1001.4,VALID,0,VALID,91.3418,VALID,0,VALID,22.5501,VALID,66,VALID,0.05625,
2009-07-27, 00:40:04,VALID,1001.37,VALID,0,VALID,91.3266,VALID,0,VALID,22.5501,VALID,66,VALID,0.180469,
2009-07-27, 00:41:04,VALID,1001.38,VALID,0,VALID,91.2579,VALID,0,VALID,22.5323,VALID,70,VALID,0.373828,
2009-07-27, 00:42:04,VALID,1001.37,VALID,0,VALID,91.1892,VALID,0,VALID,22.5323,VALID,99,VALID,0.33125,
2009-07-27, 00:43:04,VALID,1001.38,VALID,0,VALID,91.0595,VALID,0,VALID,22.5731,VALID,99,VALID,0.218359,
2009-07-27, 00:44:04,VALID,1001.37,VALID,0,VALID,90.9985,VALID,0,VALID,22.5519,VALID,99,VALID,0,
2009-07-27, 00:45:04,VALID,1001.37,VALID,0,VALID,91.0748,VALID,0,VALID,22.5714,VALID,99,VALID,0,
2009-07-27, 00:46:04,VALID,1001.33,VALID,0,VALID,91.029,VALID,0,VALID,22.5714,VALID,99,VALID,0,
2009-07-27, 00:47:04,VALID,1001.29,VALID,0,VALID,90.9985,VALID,0,VALID,22.5714,VALID,99,VALID,0,
2009-07-27, 00:48:04,VALID,1001.27,VALID,0,VALID,90.8764,VALID,0,VALID,22.5519,VALID,99,VALID,0,
2009-07-27, 00:49:04,VALID,1001.23,VALID,0,VALID,90.8306,VALID,0,VALID,22.5519,VALID,99,VALID,0,
2009-07-27, 00:50:04,VALID,1001.2,VALID,0,VALID,90.9451,VALID,0,VALID,22.5519,VALID,99,VALID,0,
2009-07-27, 00:51:04,VALID,1001.18,VALID,0,VALID,90.617,VALID,0,VALID,22.5731,VALID,99,VALID,0.304688,
2009-07-27, 00:52:04,VALID,1001.18,VALID,0,VALID,90.4797,VALID,0,VALID,22.5519,VALID,99,VALID,0.0539063,
2009-07-27, 00:53:04,VALID,1001.17,VALID,0,VALID,90.2279,VALID,0,VALID,22.5714,VALID,99,VALID,0.296094,
2009-07-27, 00:54:04,VALID,1001.14,VALID,0,VALID,89.1979,VALID,0,VALID,22.5323,VALID,99,VALID,0.167969,
2009-07-27, 00:55:04,VALID,1001.18,VALID,0,VALID,89.2513,VALID,0,VALID,22.5714,VALID,99,VALID,0.162891,
2009-07-27, 00:56:04,VALID,1001.14,VALID,0,VALID,89.0224,VALID,0,VALID,22.6087,VALID,99,VALID,0.370313,
2009-07-27, 00:57:04,VALID,1001.14,VALID,0,VALID,87.5423,VALID,0.112286,VALID,22.5874,VALID,101,VALID,0.606641,
2009-07-27, 00:58:04,VALID,1001.11,VALID,0,VALID,87.0616,VALID,0.112286,VALID,22.685,VALID,102,VALID,0.746484,
2009-07-27, 00:59:04,VALID,1001.14,VALID,0,VALID,86.4894,VALID,0.112286,VALID,22.7842,VALID,112,VALID,0.536328,
2009-07-27, 01:00:04,VALID,1001.12,VALID,0,VALID,85.7493,VALID,0.112286,VALID,22.8605,VALID,123,VALID,0.369141,
2009-07-27, 01:01:04,VALID,1001.1,VALID,0,VALID,85.8256,VALID,0.112286,VALID,22.9598,VALID,123,VALID,0.36875,
2009-07-27, 01:02:04,VALID,1001.07,VALID,0,VALID,85.4517,VALID,0,VALID,22.9793,VALID,123,VALID,0.142188,
2009-07-27, 01:03:04,VALID,1001.06,VALID,0,VALID,84.7346,VALID,0.112286,VALID,22.9988,VALID,123,VALID,0.276172,
2009-07-27, 01:04:04,VALID,1001.06,VALID,0,VALID,84.4752,VALID,0.112286,VALID,23.0183,VALID,123,VALID,0.198437,
2009-07-27, 01:05:04,VALID,1001.06,VALID,0,VALID,84.5743,VALID,0.112286,VALID,23.0361,VALID,123,VALID,0.205078,
2009-07-27, 01:06:04,VALID,1001.06,VALID,0,VALID,84.5286,VALID,0.112286,VALID,23.0556,VALID,123,VALID,0.288672,
2009-07-27, 01:07:04,VALID,1001,VALID,0,VALID,84.437,VALID,0.112286,VALID,23.0769,VALID,123,VALID,0.339063,
2009-07-27, 01:08:04,VALID,1001.01,VALID,0,VALID,84.5515,VALID,0.112286,VALID,23.0751,VALID,123,VALID,0.310156,
2009-07-27, 01:09:04,VALID,1000.97,VALID,0,VALID,84.582,VALID,0,VALID,23.0964,VALID,123,VALID,0.231641,
2009-07-27, 01:10:04,VALID,1000.96,VALID,0,VALID,84.4294,VALID,0.112286,VALID,23.0751,VALID,123,VALID,0.214453,
2009-07-27, 01:11:04,VALID,1000.93,VALID,0,VALID,84.1852,VALID,0,VALID,23.0981,VALID,123,VALID,0.0914062,
2009-07-27, 01:12:04,VALID,1000.95,VALID,0,VALID,84.4675,VALID,0,VALID,23.1176,VALID,123,VALID,0.139062,
2009-07-27, 01:13:04,VALID,1000.95,VALID,0,VALID,84.582,VALID,0,VALID,23.0769,VALID,123,VALID,0.16875,
2009-07-27, 01:14:04,VALID,1000.9,VALID,0,VALID,84.4294,VALID,0,VALID,23.0981,VALID,123,VALID,0.173047,
2009-07-27, 01:15:04,VALID,1000.92,VALID,0,VALID,84.5591,VALID,0,VALID,23.0981,VALID,123,VALID,0.194531,
2009-07-27, 01:16:04,VALID,1000.88,VALID,0,VALID,84.1776,VALID,0,VALID,23.0786,VALID,123,VALID,0.371875,
2009-07-27, 01:17:04,VALID,1000.86,VALID,0,VALID,84.0326,VALID,0,VALID,23.0981,VALID,123,VALID,0.583594,
2009-07-27, 01:18:04,VALID,1000.83,VALID,0,VALID,84.2081,VALID,0,VALID,23.0964,VALID,121,VALID,0.666016,
2009-07-27, 01:19:04,VALID,1000.82,VALID,0,VALID,84.1318,VALID,0,VALID,23.1371,VALID,120,VALID,0.500391,
2009-07-27, 01:20:04,VALID,1000.82,VALID,0,VALID,84.2539,VALID,0,VALID,23.1566,VALID,120,VALID,0.433594,
2009-07-27, 01:21:04,VALID,1000.82,VALID,0,VALID,84.7117,VALID,0,VALID,23.1371,VALID,120,VALID,0.553125,
2009-07-27, 01:22:04,VALID,1000.83,VALID,0,VALID,84.7574,VALID,0,VALID,23.0964,VALID,118,VALID,0.683203,
2009-07-27, 01:23:04,VALID,1000.83,VALID,0,VALID,85.0474,VALID,0,VALID,23.0964,VALID,118,VALID,0.620703,
2009-07-27, 01:24:04,VALID,1000.84,VALID,0,VALID,85.5051,VALID,0,VALID,23.0786,VALID,118,VALID,0.413672,
2009-07-27, 01:25:04,VALID,1000.8,VALID,0,VALID,85.6654,VALID,0,VALID,23.0396,VALID,118,VALID,0.279297,
2009-07-27, 01:26:04,VALID,1000.82,VALID,0,VALID,85.9477,VALID,0,VALID,23.0006,VALID,118,VALID,0.176953,
2009-07-27, 01:27:04,VALID,1000.81,VALID,0,VALID,86.0011,VALID,0,VALID,22.9598,VALID,118,VALID,0.0160156,
2009-07-27, 01:28:04,VALID,1000.77,VALID,0,VALID,86.1155,VALID,0,VALID,22.942,VALID,118,VALID,0,
2009-07-27, 01:29:04,VALID,1000.78,VALID,0,VALID,85.3449,VALID,0,VALID,22.8818,VALID,128,VALID,0.801172,
2009-07-27, 01:30:04,VALID,1000.76,VALID,0,VALID,85.2915,VALID,0,VALID,22.8835,VALID,124,VALID,0.532031,
2009-07-27, 01:31:04,VALID,1000.77,VALID,0,VALID,85.0779,VALID,0,VALID,22.903,VALID,133,VALID,0.832812,
2009-07-27, 01:32:04,VALID,1000.79,VALID,0,VALID,84.6659,VALID,0,VALID,22.903,VALID,131,VALID,1.35195,
2009-07-27, 01:33:04,VALID,1000.76,VALID,0,VALID,83.9945,VALID,0,VALID,22.9208,VALID,137,VALID,1.4457,
2009-07-27, 01:34:04,VALID,1000.75,VALID,0,VALID,84.0021,VALID,0,VALID,22.9793,VALID,136,VALID,1.48945,
2009-07-27, 01:35:04,VALID,1000.7,VALID,0,VALID,84.1166,VALID,0,VALID,23.0183,VALID,131,VALID,1.21875,
2009-07-27, 01:36:04,VALID,1000.68,VALID,0,VALID,83.9716,VALID,0,VALID,23.0183,VALID,134,VALID,0.875391,
2009-07-27, 01:37:04,VALID,1000.7,VALID,0,VALID,83.7351,VALID,0,VALID,23.0396,VALID,123,VALID,0.408984,
2009-07-27, 01:38:04,VALID,1000.68,VALID,0,VALID,83.9945,VALID,0,VALID,23.0201,VALID,120,VALID,0.280469,
2009-07-27, 01:39:04,VALID,1000.68,VALID,0,VALID,85.3449,VALID,0,VALID,23.0183,VALID,19,VALID,0.644141,
2009-07-27, 01:40:04,VALID,1000.7,VALID,0,VALID,86.2834,VALID,0,VALID,22.9811,VALID,356,VALID,0.555078,
2009-07-27, 01:41:04,VALID,1000.7,VALID,0,VALID,87.3592,VALID,0,VALID,22.9225,VALID,356,VALID,0.522656,
2009-07-27, 01:42:04,VALID,1000.72,VALID,0,VALID,87.8474,VALID,0,VALID,22.8445,VALID,356,VALID,0.398438,
2009-07-27, 01:43:04,VALID,1000.73,VALID,0,VALID,87.7635,VALID,0,VALID,22.7257,VALID,355,VALID,0.215234,
2009-07-27, 01:44:04,VALID,1000.75,VALID,0,VALID,88.1984,VALID,0,VALID,22.7274,VALID,342,VALID,0.614453,
2009-07-27, 01:45:04,VALID,1000.79,VALID,0,VALID,88.351,VALID,0,VALID,22.6867,VALID,342,VALID,0.589844,
2009-07-27, 01:46:04,VALID,1000.77,VALID,0,VALID,87.939,VALID,0,VALID,22.6867,VALID,342,VALID,0.429688,
2009-07-27, 01:47:04,VALID,1000.73,VALID,0,VALID,87.6643,VALID,0,VALID,22.6884,VALID,342,VALID,0.483594,
2009-07-27, 01:48:04,VALID,1000.75,VALID,0,VALID,87.3363,VALID,0,VALID,22.6867,VALID,342,VALID,0.542969,
2009-07-27, 01:49:04,VALID,1000.71,VALID,0,VALID,85.2763,VALID,0,VALID,22.6867,VALID,342,VALID,0.352344,
2009-07-27, 01:50:04,VALID,1000.7,VALID,0,VALID,85.0626,VALID,0,VALID,22.8055,VALID,342,VALID,0.176172,
2009-07-27, 01:51:04,VALID,1000.7,VALID,0,VALID,85.3755,VALID,0,VALID,22.8427,VALID,342,VALID,0.0390625,
2009-07-27, 01:52:04,VALID,1000.69,VALID,0,VALID,84.8414,VALID,0,VALID,22.864,VALID,342,VALID,0,
2009-07-27, 01:53:04,VALID,1000.71,VALID,0,VALID,84.7346,VALID,0,VALID,22.8835,VALID,342,VALID,0.195313,
2009-07-27, 01:54:04,VALID,1000.71,VALID,0,VALID,84.6735,VALID,0,VALID,22.8818,VALID,342,VALID,0.348437,
2009-07-27, 01:55:04,VALID,1000.72,VALID,0,VALID,85.0092,VALID,0,VALID,22.9013,VALID,342,VALID,0.30625,
2009-07-27, 01:56:04,VALID,1000.73,VALID,0,VALID,85.4517,VALID,0,VALID,22.8818,VALID,342,VALID,0.239844,
2009-07-27, 01:57:04,VALID,1000.71,VALID,0,VALID,86.1308,VALID,0,VALID,22.8427,VALID,342,VALID,0.286719,
2009-07-27, 01:58:04,VALID,1000.72,VALID,0,VALID,86.8937,VALID,0,VALID,22.8055,VALID,342,VALID,0.509375,
2009-07-27, 01:59:04,VALID,1000.75,VALID,0,VALID,87.2294,VALID,0,VALID,22.7469,VALID,342,VALID,0.417578,
2009-07-27, 02:00:04,VALID,1000.76,VALID,0,VALID,87.6796,VALID,0,VALID,22.6867,VALID,342,VALID,0.444141,
2009-07-27, 02:01:04,VALID,1000.74,VALID,0,VALID,87.9237,VALID,0,VALID,22.6299,VALID,342,VALID,0.324219,
2009-07-27, 02:02:04,VALID,1000.74,VALID,0,VALID,88.2747,VALID,0,VALID,22.5909,VALID,342,VALID,0.183594,
2009-07-27, 02:03:04,VALID,1000.72,VALID,0,VALID,88.6028,VALID,0,VALID,22.5519,VALID,342,VALID,0.104297,
2009-07-27, 02:04:04,VALID,1000.76,VALID,0,VALID,88.6867,VALID,0,VALID,22.4721,VALID,342,VALID,0.215625,
2009-07-27, 02:05:04,VALID,1000.76,VALID,0,VALID,88.8774,VALID,0,VALID,22.4331,VALID,342,VALID,0.273438,
2009-07-27, 02:06:04,VALID,1000.78,VALID,0,VALID,89.03,VALID,0,VALID,22.4331,VALID,342,VALID,0.38125,
2009-07-27, 02:07:04,VALID,1000.79,VALID,0,VALID,88.7859,VALID,0,VALID,22.4331,VALID,342,VALID,0.470703,
2009-07-27, 02:08:04,VALID,1000.75,VALID,0,VALID,88.557,VALID,0,VALID,22.4933,VALID,173,VALID,0.514844,
2009-07-27, 02:09:04,VALID,1000.76,VALID,0,VALID,88.1603,VALID,0,VALID,22.5323,VALID,173,VALID,0.657422,
2009-07-27, 02:10:04,VALID,1000.71,VALID,0,VALID,86.9319,VALID,0,VALID,22.5892,VALID,158,VALID,1.03672,
2009-07-27, 02:11:04,VALID,1000.69,VALID,0,VALID,86.2834,VALID,0,VALID,22.7062,VALID,146,VALID,0.905078,
2009-07-27, 02:12:04,VALID,1000.71,VALID,0,VALID,85.9324,VALID,0,VALID,22.8037,VALID,138,VALID,1.02383,
2009-07-27, 02:13:04,VALID,1000.69,VALID,0,VALID,85.7569,VALID,0,VALID,22.8427,VALID,128,VALID,0.93125,
2009-07-27, 02:14:04,VALID,1000.67,VALID,0,VALID,84.704,VALID,0,VALID,22.8818,VALID,110,VALID,1.29258,
2009-07-27, 02:15:04,VALID,1000.64,VALID,0,VALID,84.8948,VALID,0,VALID,22.9208,VALID,105,VALID,1.15469,
2009-07-27, 02:16:04,VALID,1000.62,VALID,0,VALID,84.9634,VALID,0.112286,VALID,22.88,VALID,118,VALID,1.1082,
2009-07-27, 02:17:04,VALID,1000.61,VALID,0,VALID,84.4065,VALID,0,VALID,22.8605,VALID,125,VALID,1.27891,
2009-07-27, 02:18:04,VALID,1000.63,VALID,0,VALID,83.9792,VALID,0,VALID,22.8818,VALID,131,VALID,1.36563,
2009-07-27, 02:19:04,VALID,1000.6,VALID,0,VALID,83.3002,VALID,0,VALID,22.8995,VALID,126,VALID,1.55195,
2009-07-27, 02:20:04,VALID,1000.61,VALID,0,VALID,82.4991,VALID,0,VALID,22.9598,VALID,142,VALID,1.5043,
2009-07-27, 02:21:04,VALID,1000.63,VALID,0,VALID,82.1786,VALID,0.112286,VALID,23.0378,VALID,149,VALID,1.55469,
2009-07-27, 02:22:04,VALID,1000.63,VALID,0,VALID,80.6146,VALID,0.112286,VALID,23.0751,VALID,140,VALID,2.00781,
2009-07-27, 02:23:04,VALID,1000.62,VALID,0,VALID,80.0881,VALID,0.112286,VALID,23.1939,VALID,143,VALID,1.8707,
2009-07-27, 02:24:04,VALID,1000.6,VALID,0,VALID,80.378,VALID,0.112286,VALID,23.2507,VALID,150,VALID,1.53711,
2009-07-27, 02:25:04,VALID,1000.56,VALID,0,VALID,80.7519,VALID,0.112286,VALID,23.2702,VALID,142,VALID,1.46172,
2009-07-27, 02:26:04,VALID,1000.54,VALID,0,VALID,81.1563,VALID,0,VALID,23.2737,VALID,148,VALID,1.18516,
2009-07-27, 02:27:04,VALID,1000.51,VALID,0,VALID,80.4238,VALID,0,VALID,23.2347,VALID,135,VALID,1.39727,
2009-07-27, 02:28:04,VALID,1000.53,VALID,0,VALID,81.2707,VALID,0,VALID,23.1744,VALID,139,VALID,1.12617,
2009-07-27, 02:29:04,VALID,1000.51,VALID,0,VALID,81.2173,VALID,0,VALID,23.1354,VALID,143,VALID,1.29648,
2009-07-27, 02:30:04,VALID,1000.51,VALID,0,VALID,80.8969,VALID,0,VALID,23.1549,VALID,144,VALID,1.21836,
2009-07-27, 02:31:04,VALID,1000.52,VALID,0,VALID,81.2707,VALID,0,VALID,23.1566,VALID,149,VALID,1.20781,
2009-07-27, 02:32:04,VALID,1000.51,VALID,0,VALID,81.5225,VALID,0,VALID,23.1354,VALID,144,VALID,1.04766,
2009-07-27, 02:33:04,VALID,1000.46,VALID,0,VALID,81.1944,VALID,0,VALID,23.0964,VALID,138,VALID,1.28906,
2009-07-27, 02:34:04,VALID,1000.46,VALID,0,VALID,81.4691,VALID,0,VALID,23.1159,VALID,149,VALID,1.09531,
2009-07-27, 02:35:04,VALID,1000.44,VALID,0,VALID,81.492,VALID,0,VALID,23.0964,VALID,149,VALID,1.19102,
2009-07-27, 02:36:04,VALID,1000.45,VALID,0,VALID,81.492,VALID,0,VALID,23.0786,VALID,148,VALID,1.13594,
2009-07-27, 02:37:04,VALID,1000.45,VALID,0,VALID,81.7438,VALID,0,VALID,23.0786,VALID,143,VALID,1.09102,
2009-07-27, 02:38:04,VALID,1000.42,VALID,0,VALID,81.0189,VALID,0,VALID,23.0769,VALID,139,VALID,1.23047,
2009-07-27, 02:39:04,VALID,1000.4,VALID,0,VALID,81.0113,VALID,0,VALID,23.0786,VALID,129,VALID,1.40469,
2009-07-27, 02:40:04,VALID,1000.38,VALID,0,VALID,81.202,VALID,0,VALID,23.0964,VALID,125,VALID,1.1,
2009-07-27, 02:41:04,VALID,1000.38,VALID,0,VALID,80.5993,VALID,0,VALID,23.0964,VALID,121,VALID,1.35156,
2009-07-27, 02:42:04,VALID,1000.37,VALID,0,VALID,80.1949,VALID,0,VALID,23.0964,VALID,123,VALID,1.29727,
2009-07-27, 02:43:04,VALID,1000.39,VALID,0,VALID,80.5001,VALID,0,VALID,23.1371,VALID,127,VALID,1.25273,
2009-07-27, 02:44:04,VALID,1000.41,VALID,0,VALID,80.378,VALID,0,VALID,23.1159,VALID,129,VALID,1.2707,
2009-07-27, 02:45:04,VALID,1000.39,VALID,0,VALID,78.8903,VALID,0,VALID,23.1549,VALID,117,VALID,1.67891,
2009-07-27, 02:46:04,VALID,1000.37,VALID,0,VALID,79.4396,VALID,0,VALID,23.2329,VALID,126,VALID,1.37422,
2009-07-27, 02:47:04,VALID,1000.33,VALID,0,VALID,78.9742,VALID,0,VALID,23.2542,VALID,121,VALID,1.43672,
2009-07-27, 02:48:04,VALID,1000.35,VALID,0,VALID,79.4396,VALID,0,VALID,23.2524,VALID,114,VALID,1.33516,
2009-07-27, 02:49:04,VALID,1000.36,VALID,0,VALID,79.9737,VALID,0,VALID,23.2737,VALID,130,VALID,1.32969,
2009-07-27, 02:50:04,VALID,1000.35,VALID,0,VALID,80.4772,VALID,0,VALID,23.2134,VALID,142,VALID,1.1832,
2009-07-27, 02:51:04,VALID,1000.32,VALID,0,VALID,80.3323,VALID,0,VALID,23.1744,VALID,152,VALID,1.56094,
2009-07-27, 02:52:04,VALID,1000.33,VALID,0,VALID,80.2102,VALID,0,VALID,23.1762,VALID,134,VALID,1.10117,
2009-07-27, 02:53:04,VALID,1000.3,VALID,0,VALID,79.9889,VALID,0,VALID,23.1549,VALID,128,VALID,1.32461,
2009-07-27, 02:54:04,VALID,1000.3,VALID,0,VALID,79.5159,VALID,0,VALID,23.1744,VALID,138,VALID,1.44844,
2009-07-27, 02:55:04,VALID,1000.31,VALID,0,VALID,79.2946,VALID,0,VALID,23.2134,VALID,141,VALID,1.43828,
2009-07-27, 02:56:04,VALID,1000.31,VALID,0,VALID,79.2565,VALID,0,VALID,23.2329,VALID,131,VALID,1.33477,
2009-07-27, 02:57:04,VALID,1000.3,VALID,0,VALID,79.2336,VALID,0,VALID,23.2542,VALID,121,VALID,0.983203,
2009-07-27, 02:58:04,VALID,1000.29,VALID,0,VALID,79.4854,VALID,0,VALID,23.2542,VALID,122,VALID,0.621484,
2009-07-27, 02:59:04,VALID,1000.32,VALID,0,VALID,79.6914,VALID,0,VALID,23.2152,VALID,123,VALID,0.576953,
2009-07-27, 03:00:04,VALID,1000.31,VALID,0,VALID,79.554,VALID,0,VALID,23.1957,VALID,118,VALID,0.745703,
2009-07-27, 03:01:04,VALID,1000.29,VALID,0,VALID,79.5922,VALID,0,VALID,23.1762,VALID,118,VALID,0.562891,
2009-07-27, 03:02:04,VALID,1000.29,VALID,0,VALID,79.1115,VALID,0,VALID,23.1566,VALID,105,VALID,0.79375,
2009-07-27, 03:03:04,VALID,1000.29,VALID,0,VALID,79.4625,VALID,0,VALID,23.1762,VALID,99,VALID,0.503516,
2009-07-27, 03:04:04,VALID,1000.3,VALID,0,VALID,80.0957,VALID,0,VALID,23.1566,VALID,94,VALID,0.116406,
2009-07-27, 03:05:04,VALID,1000.28,VALID,0,VALID,80.4772,VALID,0,VALID,23.1159,VALID,102,VALID,0.401563,
2009-07-27, 03:06:04,VALID,1000.29,VALID,0,VALID,80.4009,VALID,0,VALID,23.0981,VALID,153,VALID,0.604688,
2009-07-27, 03:07:04,VALID,1000.3,VALID,0,VALID,80.9045,VALID,0,VALID,23.0981,VALID,139,VALID,0.475,
2009-07-27, 03:08:04,VALID,1000.31,VALID,0,VALID,81.0952,VALID,0,VALID,23.0786,VALID,148,VALID,0.496484,
2009-07-27, 03:09:04,VALID,1000.32,VALID,0,VALID,81.4157,VALID,0,VALID,23.0591,VALID,166,VALID,0.675,
2009-07-27, 03:10:04,VALID,1000.32,VALID,0,VALID,80.8892,VALID,0,VALID,23.0591,VALID,174,VALID,0.904297,
2009-07-27, 03:11:04,VALID,1000.33,VALID,0,VALID,80.1034,VALID,0,VALID,23.0769,VALID,174,VALID,0.911719,
2009-07-27, 03:12:04,VALID,1000.35,VALID,0,VALID,80.2865,VALID,0,VALID,23.0964,VALID,164,VALID,1.05938,
2009-07-27, 03:13:04,VALID,1000.35,VALID,0,VALID,80.6375,VALID,0,VALID,23.1141,VALID,160,VALID,1.24414,
2009-07-27, 03:14:04,VALID,1000.35,VALID,0,VALID,79.8974,VALID,0,VALID,23.1354,VALID,170,VALID,1.29844,
2009-07-27, 03:15:04,VALID,1000.36,VALID,0,VALID,80.1186,VALID,0,VALID,23.1939,VALID,167,VALID,1.16445,
2009-07-27, 03:16:04,VALID,1000.38,VALID,0,VALID,80.1263,VALID,0,VALID,23.2134,VALID,163,VALID,1.00078,
2009-07-27, 03:17:04,VALID,1000.36,VALID,0,VALID,79.8745,VALID,0,VALID,23.2134,VALID,158,VALID,1.46055,
2009-07-27, 03:18:04,VALID,1000.37,VALID,0,VALID,79.8211,VALID,0,VALID,23.2134,VALID,148,VALID,1.28398,
2009-07-27, 03:19:04,VALID,1000.31,VALID,0,VALID,79.7829,VALID,0,VALID,23.1726,VALID,134,VALID,1.25273,
2009-07-27, 03:20:04,VALID,1000.3,VALID,0,VALID,79.5617,VALID,0,VALID,23.1744,VALID,121,VALID,1.26719,
2009-07-27, 03:21:04,VALID,1000.32,VALID,0,VALID,80.0881,VALID,0,VALID,23.1549,VALID,119,VALID,1.16602,
2009-07-27, 03:22:04,VALID,1000.3,VALID,0,VALID,80.5535,VALID,0,VALID,23.1354,VALID,131,VALID,1.17109,
2009-07-27, 03:23:04,VALID,1000.32,VALID,0,VALID,81.1257,VALID,0,VALID,23.0769,VALID,126,VALID,1.12656,
2009-07-27, 03:24:04,VALID,1000.31,VALID,0,VALID,81.1334,VALID,0.112286,VALID,22.9971,VALID,109,VALID,1.18789,
2009-07-27, 03:25:04,VALID,1000.34,VALID,0,VALID,80.1263,VALID,0,VALID,22.9988,VALID,134,VALID,1.37461,
2009-07-27, 03:26:04,VALID,1000.35,VALID,0,VALID,80.317,VALID,0,VALID,23.0183,VALID,142,VALID,1.4125,
2009-07-27, 03:27:04,VALID,1000.34,VALID,0,VALID,79.6532,VALID,0,VALID,23.0573,VALID,144,VALID,1.31484,
2009-07-27, 03:28:04,VALID,1000.36,VALID,0,VALID,79.4167,VALID,0,VALID,23.0769,VALID,145,VALID,1.50625,
2009-07-27, 03:29:04,VALID,1000.37,VALID,0,VALID,79.76,VALID,0,VALID,23.1354,VALID,143,VALID,1.33203,
2009-07-27, 03:30:04,VALID,1000.36,VALID,0,VALID,80.0347,VALID,0,VALID,23.1354,VALID,138,VALID,1.32031,
2009-07-27, 03:31:04,VALID,1000.38,VALID,0,VALID,79.7982,VALID,0,VALID,23.1549,VALID,142,VALID,1.17188,
2009-07-27, 03:32:04,VALID,1000.34,VALID,0,VALID,79.5388,VALID,0,VALID,23.1549,VALID,129,VALID,0.916797,
2009-07-27, 03:33:04,VALID,1000.32,VALID,0,VALID,78.0358,VALID,0,VALID,23.1744,VALID,118,VALID,1.58164,
2009-07-27, 03:34:04,VALID,1000.3,VALID,0,VALID,77.8069,VALID,0,VALID,23.2312,VALID,132,VALID,1.62852,
2009-07-27, 03:35:04,VALID,1000.33,VALID,0,VALID,76.9218,VALID,0,VALID,23.3305,VALID,124,VALID,1.89844,
2009-07-27, 03:36:04,VALID,1000.33,VALID,0,VALID,77.1355,VALID,0,VALID,23.389,VALID,129,VALID,1.98828,
2009-07-27, 03:37:04,VALID,1000.34,VALID,0,VALID,76.5022,VALID,0,VALID,23.4671,VALID,119,VALID,1.91836,
2009-07-27, 03:38:04,VALID,1000.34,VALID,0,VALID,76.136,VALID,0,VALID,23.5061,VALID,126,VALID,2.09883,
2009-07-27, 03:39:04,VALID,1000.33,VALID,0,VALID,76.5404,VALID,0,VALID,23.5451,VALID,125,VALID,1.88555,
2009-07-27, 03:40:04,VALID,1000.35,VALID,0,VALID,76.0139,VALID,0,VALID,23.5451,VALID,125,VALID,2.48867,
2009-07-27, 03:41:04,VALID,1000.31,VALID,0,VALID,75.6477,VALID,0,VALID,23.5841,VALID,137,VALID,1.98242,
2009-07-27, 03:42:04,VALID,1000.33,VALID,0,VALID,76.4717,VALID,0,VALID,23.6232,VALID,154,VALID,1.95391,
2009-07-27, 03:43:04,VALID,1000.33,VALID,0,VALID,76.2046,VALID,0,VALID,23.6214,VALID,146,VALID,2.45781,
2009-07-27, 03:44:04,VALID,1000.37,VALID,0,VALID,76.0597,VALID,0,VALID,23.6036,VALID,132,VALID,1.93906,
2009-07-27, 03:45:04,VALID,1000.36,VALID,0,VALID,76.2657,VALID,0,VALID,23.6036,VALID,136,VALID,1.80234,